Temp
-9 -8 -8 -8 -8 -8 -8 -8 -8 -8 -8 -8 -8 -8 -8 -8 -8 -8 -8 -8 -8 -8 -8 -9 -9 -9 -9 -9 -9 -9 -9 -9 -9 -9 -9 -9 -10 -10 -10 -10 -10 -10 -9 -10 -10
-9 -9 -9 -9 -8 -8 -8 -8 -8 -8 -8 -8 -8 -8 -8 -8 -8 -8 -8 -9 -9 -9 -9 -9 -9 -9 -9 -9 -9 -9 -9 -9 -9 -10 -10 -10 -10 -10 -10 -10 -10 -10 -9 -9 -10
-9 -9 -9 -9 -9 -9 -9 -8 -8 -8 -8 -8 -8 -8 -8 -8 -8 -8 -8 -9 -9 -9 -9 -9 -9 -9 -9 -9 -9 -9 -9 -9 -9 -10 -10 -10 -10 -10 -10 -10 -10 -10 -9 -10 -10
-9 -9 -9 -9 -9 -9 -9 -9 -9 -9 -9 -9 -8 -8 -8 -8 -8 -9 -9 -9 -9 -9 -9 -9 -9 -9 -9 -9 -9 -9 -9 -9 -9 -10 -10 -10 -10 -10 -10 -9 -9 -10 -9 -10 -10
-9 -9 -9 -9 -9 -9 -9 -9 -9 -9 -9 -9 -9 -9 -9 -9 -9 -9 -9 -9 -9 -9 -9 -9 -9 -9 -9 -9 -9 -9 -9 -9 -9 -9 -9 -9 -10 -9 -10 -9 -9 -9 -10 -9 -10
-9 -9 -9 -9 -9 -9 -9 -9 -9 -9 -9 -9 -9 -9 -9 -9 -9 -9 -9 -9 -9 -9 -9 -9 -9 -9 -9 -9 -9 -9 -9 -9 -9 -9 -9 -9 -9 -9 -10 -10 -9 -9 -10 -10 -10
-9 -9 -9 -9 -9 -9 -9 -9 -9 -9 -9 -9 -9 -9 -9 -9 -9 -9 -9 -10 -10 -10 -10 -10 -10 -10 -10 -10 -9 -9 -9 -9 -9 -9 -9 -9 -9 -9 -10 -10 -10 -10 -10 -10 -10
-10 -10 -10 -10 -10 -10 -10 -10 -10 -9 -9 -10 -9 -9 -9 -10 -10 -10 -10 -10 -10 -10 -10 -10 -10 -10 -10 -10 -10 -10 -10 -10 -10 -10 -10 -10 -9 -9 -10 -10 -10 -10 -10 -10 -10
-10 -10 -10 -10 -10 -10 -10 -10 -10 -10 -10 -10 -10 -10 -10 -10 -10 -10 -10 -10 -10 -10 -10 -10 -10 -10 -10 -10 -10 -10 -11 -11 -10 -10 -10 -10 -10 -10 -10 -10 -10 -10 -10 -10 -10
-10 -10 -10 -10 -10 -10 -10 -10 -11 -10 -10 -10 -10 -10 -10 -10 -10 -10 -10 -10 -10 -10 -10 -10 -11 -11 -10 -10 -11 -11 -11 -11 -10 -10 -11 -10 -9 -10 -10 -10 -10 -10 -10 -10 -11
-11 -11 -11 -11 -11 -11 -11 -11 -10 -10 -10 -10 -10 -10 -10 -10 -10 -11 -11 -10 -10 -10 -10 -10 -10 -10 -10 -11 -11 -10 -11 -11 -10 -11 -12 -11 -10 -10 -10 -10 -10 -10 -11 -11 -10
-11 -11 -11 -11 -11 -11 -11 -11 -11 -10 -10 -10 -10 -10 -11 -11 -10 -11 -11 -11 -10 -10 -11 -10 -9 -10 -11 -11 -11 -11 -10 -10 -10 -11 -11 -11 -10 -10 -10 -10 -10 -10 -11 -11 -10
-11 -11 -11 -11 -11 -11 -11 -11 -11 -11 -10 -9 -10 -10 -11 -11 -10 -11 -11 -11 -10 -10 -10 -10 -10 -11 -11 -11 -11 -11 -11 -11 -11 -11 -11 -10 -10 -10 -10 -9 -10 -10 -11 -11 -10
-12 -12 -12 -12 -12 -12 -12 -12 -12 -11 -10 -9 -10 -10 -10 -11 -10 -11 -11 -11 -11 -10 -11 -10 -10 -10 -11 -10 -11 -10 -11 -11 -11 -11 -11 -11 -9 -9 -9 -9 -10 -10 -10 -10 -10
-12 -12 -12 -12 -12 -13 -12 -12 -12 -12 -10 -9 -9 -9 -10 -10 -10 -11 -11 -11 -11 -11 -11 -10 -11 -10 -11 -11 -12 -10 -11 -11 -11 -11 -11 -10 -10 -8 -9 -9 -10 -10 -10 -11 -10
-12 -12 -12 -12 -13 -13 -13 -13 -13 -12 -10 -10 -10 -10 -11 -11 -11 -10 -11 -12 -12 -12 -12 -11 -12 -12 -11 -12 -12 -12 -11 -11 -12 -11 -10 -10 -11 -8 -9 -10 -9 -10 -10 -11 -11
-12 -12 -11 -12 -12 -13 -13 -13 -13 -11 -10 -10 -11 -11 -11 -11 -12 -13 -13 -12 -12 -13 -13 -12 -12 -12 -12 -12 -12 -13 -13 -13 -12 -12 -10 -11 -11 -9 -9 -9 -10 -10 -10 -11 -11
-12 -13 -12 -11 -12 -14 -14 -14 -11 -9 -11 -12 -12 -12 -12 -12 -12 -13 -13 -13 -14 -14 -14 -13 -12 -13 -13 -13 -14 -13 -14 -13 -14 -12 -10 -11 -9 -8 -10 -10 -10 -11 -11 -12 -11
-13 -13 -12 -13 -13 -14 -15 -15 -11 -12 -12 -12 -13 -12 -12 -12 -12 -14 -13 -13 -14 -15 -15 -15 -14 -14 -13 -14 -15 -13 -13 -14 -15 -13 -12 -9 -10 -10 -10 -11 -11 -11 -12 -11 -12
-14 -13 -12 -14 -15 -15 -15 -13 -12 -14 -14 -14 -14 -13 -13 -13 -14 -15 -14 -12 -14 -15 -15 -15 -15 -14 -15 -14 -13 -15 -14 -14 -14 -14 -13 -10 -11 -10 -11 -13 -13 -12 -13 -13 -13
-14 -14 -13 -14 -16 -15 -15 -14 -14 -14 -14 -15 -14 -14 -14 -14 -15 -15 -14 -13 -14 -15 -15 -15 -15 -15 -15 -14 -14 -14 -15 -15 -15 -15 -14 -13 -9 -10 -11 -13 -13 -14 -14 -14 -13
-16 -16 -14 -15 -16 -15 -15 -15 -15 -14 -15 -15 -15 -15 -15 -15 -15 -15 -15 -15 -15 -15 -15 -15 -15 -15 -14 -14 -15 -14 -14 -15 -15 -13 -14 -14 -10 -12 -12 -12 -13 -14 -14 -14 -14
-16 -16 -16 -16 -16 -16 -15 -15 -16 -15 -15 -16 -16 -16 -16 -15 -16 -15 -15 -15 -15 -15 -16 -16 -15 -15 -15 -15 -14 -14 -14 -15 -15 -16 -16 -14 -11 -12 -12 -13 -13 -14 -14 -14 -14
-18 -17 -17 -17 -17 -17 -17 -17 -16 -15 -16 -16 -16 -17 -16 -16 -17 -16 -16 -15 -16 -16 -16 -16 -16 -17 -17 -16 -16 -16 -15 -15 -17 -18 -13 -14 -13 -11 -12 -13 -13 -14 -15 -15 -15
-18 -18 -19 -19 -18 -17 -18 -19 -18 -17 -16 -17 -18 -17 -17 -17 -18 -17 -16 -15 -16 -17 -17 -17 -17 -17 -17 -17 -16 -16 -15 -16 -17 -16 -16 -14 -14 -12 -11 -13 -14 -15 -15 -15 -15
-20 -20 -20 -20 -19 -19 -20 -20 -19 -19 -19 -18 -18 -19 -19 -19 -18 -17 -17 -18 -18 -17 -18 -17 -18 -17 -17 -17 -17 -17 -17 -17 -15 -15 -16 -16 -15 -13 -14 -15 -14 -14 -15 -16 -17
-20 -21 -21 -21 -21 -21 -20 -21 -21 -22 -20 -21 -20 -20 -20 -19 -18 -18 -19 -19 -20 -17 -18 -18 -18 -19 -18 -17 -18 -18 -15 -15 -17 -17 -17 -16 -16 -15 -15 -16 -14 -15 -17 -17 -18
Height
5877 5877 5878 5878 5878 5879 5879 5879 5879 5879 5879 5879 5879 5879 5879 5878 5878 5877 5877 5876 5874 5873 5871 5870 5869 5868 5866 5865 5864 5862 5861 5860 5858 5857 5857 5855 5854 5852 5851 5850 5848 5847 5846 5845 5843
5872 5873 5874 5875 5875 5875 5875 5876 5876 5876 5876 5875 5875 5875 5876 5876 5876 5875 5875 5873 5872 5871 5870 5868 5867 5865 5864 5863 5861 5860 5859 5858 5856 5855 5854 5854 5852 5852 5849 5847 5846 5844 5844 5843 5842
5867 5868 5869 5870 5871 5871 5871 5871 5871 5871 5871 5872 5872 5871 5871 5871 5872 5871 5871 5870 5869 5868 5867 5865 5864 5863 5862 5861 5860 5858 5857 5856 5854 5853 5851 5851 5850 5848 5847 5844 5844 5841 5841 5839 5840
5861 5862 5863 5863 5864 5865 5865 5866 5866 5866 5866 5866 5866 5867 5867 5868 5869 5867 5865 5865 5864 5864 5862 5861 5860 5859 5858 5857 5857 5856 5854 5853 5852 5850 5848 5847 5846 5846 5842 5840 5841 5839 5837 5837 5835
5854 5855 5856 5857 5857 5858 5859 5859 5859 5859 5859 5860 5860 5860 5860 5863 5863 5861 5861 5860 5860 5858 5857 5856 5855 5853 5852 5852 5851 5850 5849 5849 5848 5847 5844 5843 5842 5842 5838 5837 5834 5835 5831 5833 5830
5850 5850 5851 5851 5851 5852 5852 5852 5852 5852 5852 5852 5852 5852 5853 5857 5855 5854 5854 5854 5853 5852 5852 5850 5849 5846 5847 5846 5845 5843 5843 5843 5842 5840 5839 5837 5837 5837 5833 5832 5830 5829 5828 5825 5825
5843 5843 5844 5844 5845 5845 5845 5845 5846 5844 5844 5844 5843 5842 5844 5849 5848 5847 5847 5846 5846 5845 5845 5844 5842 5840 5839 5839 5838 5835 5835 5834 5836 5832 5831 5828 5832 5832 5829 5828 5826 5825 5823 5822 5818
5835 5836 5837 5837 5838 5839 5839 5839 5839 5838 5837 5836 5836 5833 5835 5841 5840 5838 5837 5837 5837 5837 5837 5836 5833 5831 5831 5831 5828 5828 5826 5825 5827 5823 5822 5820 5824 5823 5821 5821 5821 5818 5815 5814 5813
5827 5828 5828 5828 5828 5829 5830 5830 5830 5830 5830 5829 5828 5825 5826 5832 5832 5829 5827 5828 5828 5828 5828 5827 5824 5823 5825 5821 5819 5821 5815 5814 5815 5814 5809 5808 5813 5817 5810 5809 5812 5812 5809 5805 5805
5818 5819 5819 5818 5818 5819 5819 5818 5818 5819 5820 5819 5817 5817 5817 5820 5821 5821 5820 5819 5819 5820 5820 5819 5813 5813 5818 5812 5810 5809 5803 5805 5805 5806 5792 5795 5798 5806 5803 5798 5800 5802 5800 5798 5794
5807 5809 5809 5808 5809 5809 5811 5809 5810 5808 5809 5810 5806 5805 5805 5808 5810 5813 5812 5812 5812 5811 5812 5807 5803 5807 5812 5803 5800 5798 5797 5793 5799 5801 5779 5783 5780 5789 5795 5792 5790 5791 5792 5789 5785
5796 5798 5798 5798 5798 5799 5800 5800 5798 5797 5793 5801 5799 5794 5795 5798 5797 5803 5805 5805 5803 5803 5799 5796 5792 5803 5798 5796 5790 5788 5785 5786 5784 5788 5777 5770 5768 5775 5779 5782 5783 5783 5784 5780 5777
5785 5787 5788 5787 5787 5788 5787 5788 5787 5784 5777 5779 5790 5784 5788 5790 5789 5792 5793 5793 5793 5790 5791 5786 5784 5788 5786 5786 5782 5782 5776 5776 5772 5776 5762 5761 5749 5761 5768 5768 5772 5776 5774 5772 5770
5774 5776 5776 5776 5778 5775 5775 5776 5776 5776 5765 5762 5766 5774 5779 5779 5775 5781 5781 5781 5778 5778 5780 5771 5777 5776 5772 5770 5775 5768 5773 5766 5763 5761 5751 5752 5729 5746 5755 5756 5760 5764 5765 5764 5761
5764 5766 5766 5765 5765 5766 5766 5764 5765 5766 5748 5753 5753 5755 5762 5767 5769 5768 5769 5767 5768 5767 5765 5763 5763 5762 5759 5765 5761 5756 5757 5757 5753 5746 5740 5736 5730 5727 5741 5740 5747 5750 5751 5752 5751
5752 5755 5757 5756 5754 5752 5752 5752 5754 5756 5732 5742 5743 5745 5747 5748 5750 5753 5756 5755 5755 5753 5749 5752 5752 5747 5749 5750 5749 5748 5744 5742 5740 5735 5720 5726 5729 5717 5724 5729 5733 5734 5734 5739 5734
5740 5741 5742 5743 5742 5739 5738 5739 5744 5733 5735 5736 5735 5736 5736 5734 5733 5736 5738 5741 5741 5739 5738 5739 5735 5738 5736 5735 5734 5737 5733 5728 5722 5717 5711 5719 5712 5707 5710 5712 5714 5719 5719 5720 5723
5727 5727 5730 5732 5730 5726 5725 5726 5726 5725 5726 5728 5725 5722 5720 5721 5720 5721 5721 5721 5724 5725 5724 5719 5721 5724 5728 5726 5723 5720 5718 5713 5708 5707 5702 5705 5690 5694 5702 5703 5703 5702 5705 5707 5709
5707 5708 5714 5716 5711 5710 5709 5710 5713 5713 5712 5711 5709 5704 5708 5709 5705 5702 5704 5706 5707 5712 5707 5706 5704 5706 5706 5707 5707 5705 5698 5705 5696 5695 5689 5686 5683 5686 5690 5689 5687 5689 5691 5693 5693
5687 5688 5697 5697 5692 5690 5687 5691 5696 5700 5697 5694 5691 5692 5695 5691 5685 5683 5686 5694 5691 5691 5694 5687 5681 5693 5690 5690 5687 5683 5690 5687 5680 5676 5673 5671 5674 5672 5673 5677 5675 5676 5679 5680 5678
5666 5664 5677 5675 5671 5665 5662 5674 5682 5688 5684 5678 5675 5672 5677 5679 5675 5672 5670 5679 5674 5673 5671 5668 5662 5668 5672 5677 5681 5674 5670 5668 5667 5662 5656 5659 5664 5661 5660 5664 5666 5666 5666 5664 5666
5646 5644 5656 5650 5646 5643 5645 5655 5663 5671 5667 5658 5657 5657 5658 5663 5658 5657 5657 5662 5667 5656 5647 5643 5637 5637 5645 5658 5660 5654 5654 5648 5645 5650 5641 5644 5639 5658 5655 5656 5653 5653 5651 5652 5650
5621 5623 5625 5625 5617 5622 5627 5631 5633 5647 5652 5643 5638 5636 5641 5640 5635 5640 5644 5657 5652 5645 5627 5622 5619 5616 5622 5635 5641 5635 5638 5633 5627 5626 5619 5619 5622 5647 5651 5644 5643 5641 5638 5636 5635
5599 5598 5598 5599 5604 5602 5603 5602 5608 5622 5621 5625 5618 5618 5619 5621 5625 5613 5625 5636 5638 5626 5617 5609 5604 5603 5601 5612 5618 5611 5613 5614 5608 5600 5606 5601 5609 5626 5627 5632 5633 5630 5622 5618 5616
5579 5576 5575 5573 5578 5581 5583 5581 5584 5590 5601 5608 5592 5597 5604 5597 5599 5595 5604 5613 5612 5609 5599 5596 5586 5589 5589 5592 5596 5594 5594 5594 5587 5590 5580 5592 5587 5604 5618 5612 5613 5607 5610 5605 5601
5558 5557 5554 5555 5560 5559 5559 5561 5561 5569 5577 5574 5569 5577 5574 5570 5578 5578 5581 5581 5582 5583 5579 5574 5567 5571 5567 5577 5577 5575 5579 5577 5579 5577 5571 5571 5571 5594 5590 5590 5591 5593 5588 5583 5581
5536 5533 5529 5539 5538 5535 5542 5537 5539 5548 5547 5554 5552 5549 5549 5552 5560 5558 5557 5552 5551 5553 5554 5553 5551 5549 5542 5555 5552 5540 5566 5572 5567 5566 5564 5554 5561 5570 5568 5570 5577 5572 5567 5567 5564
Wind_Speed
20 19 19 19 19 18 18 20 20 19 19 18 17 16 16 15 15 15 13 12 13 12 12 13 14 14 14 15 15 15 14 14 14 13 11 12 12 14 16 17 18 19 19 16 16
25 25 24 24 24 24 24 23 23 23 23 23 22 21 21 20 20 20 20 19 19 18 17 16 17 17 17 17 18 18 18 15 16 15 15 15 16 15 19 20 19 19 18 18 17
30 30 29 28 28 28 29 28 28 28 28 29 29 27 26 25 24 25 25 25 25 25 24 23 23 22 22 21 21 21 22 21 21 20 19 19 19 19 19 23 17 19 16 19 18
32 32 32 31 30 30 30 31 32 33 33 33 33 34 33 32 30 29 31 31 30 30 30 30 29 29 29 28 27 26 27 27 25 25 25 23 22 19 21 26 19 21 21 18 22
35 34 34 33 33 33 33 33 33 34 36 37 38 38 38 36 34 36 35 35 35 35 35 35 35 36 36 35 35 33 32 31 31 30 31 29 28 24 24 27 28 23 26 23 24
36 36 35 35 35 35 35 35 35 36 37 38 39 41 42 38 39 38 38 38 38 38 38 38 38 39 39 39 39 39 38 36 36 35 36 34 32 30 28 28 30 30 28 29 27
35 35 34 34 34 34 35 35 36 38 39 40 41 43 43 39 40 41 41 40 40 40 41 41 41 42 41 41 40 42 41 40 38 40 39 40 37 34 33 32 32 31 33 31 33
36 36 36 36 37 36 37 38 37 38 39 40 43 45 44 40 41 43 43 43 42 41 42 41 43 44 42 42 43 43 43 42 41 43 41 41 39 38 39 35 33 36 36 36 34
39 39 39 40 41 39 40 41 41 41 43 43 44 47 46 40 41 42 44 44 43 42 42 43 46 44 41 45 45 41 44 44 44 45 47 45 41 35 44 44 38 37 38 39 38
43 42 42 44 44 44 43 44 45 45 44 44 45 46 46 44 42 43 42 42 42 42 42 43 46 45 40 43 44 43 48 45 45 43 52 50 44 36 42 48 44 42 41 39 40
46 46 45 45 46 45 44 45 45 47 46 45 48 46 45 44 46 43 43 43 43 42 42 46 50 44 37 44 46 46 45 48 43 39 58 53 53 43 40 44 45 41 38 40 41
47 47 46 47 48 48 47 47 49 51 53 47 50 52 49 44 45 43 45 45 45 45 45 50 53 41 43 46 50 50 50 48 48 41 52 58 56 48 44 39 39 37 33 36 39
46 46 45 46 47 48 50 49 51 53 57 54 49 55 51 48 47 43 43 45 49 51 50 53 54 48 50 50 52 51 54 52 55 48 56 55 61 51 46 44 38 32 34 33 34
49 50 49 50 50 50 51 50 52 53 58 59 58 55 51 51 54 46 42 43 46 47 50 57 52 52 55 56 51 56 51 55 55 53 59 56 69 53 45 43 38 33 30 33 31
52 53 52 52 52 51 53 51 51 52 62 61 60 59 52 47 44 43 43 46 45 46 47 50 49 52 54 49 51 56 54 53 55 59 62 64 66 61 51 50 44 40 36 35 33
50 55 55 54 56 56 55 54 53 54 67 63 62 63 61 59 57 52 45 44 45 45 50 51 50 54 55 52 49 52 57 58 59 63 72 66 62 64 61 56 50 49 48 42 42
54 60 57 58 58 59 60 57 57 64 66 65 66 63 64 63 65 61 60 55 49 50 52 53 56 53 53 54 55 53 57 60 64 67 73 68 71 69 65 61 59 54 53 50 46
66 71 72 67 63 58 61 60 68 70 65 63 67 68 67 68 70 67 65 66 60 57 54 56 57 55 53 53 56 59 60 64 65 69 72 70 74 71 66 64 63 62 59 52 34
76 74 77 71 71 69 66 63 73 71 69 68 68 69 70 69 70 69 69 70 67 58 60 59 59 59 61 59 57 61 65 60 63 69 73 70 71 68 64 65 68 63 61 39 32
80 82 81 74 74 73 68 66 78 69 65 68 72 71 68 70 75 75 73 70 69 66 62 67 68 61 63 65 68 68 62 65 69 71 74 70 71 67 69 74 62 39 38 47 49
86 88 82 83 79 82 84 81 85 77 67 69 70 75 75 75 68 67 73 72 74 73 72 70 70 73 69 68 66 69 68 69 68 69 71 72 63 71 71 63 63 63 61 52 52
86 89 88 89 88 92 91 87 82 81 77 79 75 65 66 71 74 71 73 69 62 68 77 79 77 80 78 73 70 74 72 75 76 73 76 74 69 67 66 65 64 66 64 59 58
90 90 89 90 94 96 97 96 93 89 84 83 85 87 76 79 75 79 76 67 64 66 67 72 74 77 76 74 68 71 71 76 80 78 80 79 71 60 60 64 61 60 62 61 58
89 91 91 92 91 91 92 95 95 92 90 89 89 89 89 88 80 84 73 67 63 56 63 73 69 59 57 56 51 59 67 64 70 78 72 77 72 63 63 58 56 56 54 55 56
86 89 87 88 93 94 88 86 91 94 92 87 88 87 89 94 89 92 91 82 82 79 80 74 64 60 59 54 53 56 61 59 69 66 71 71 73 69 59 58 51 56 57 54 57
82 83 86 88 87 88 86 85 89 83 81 86 86 83 83 86 86 90 89 92 89 89 86 87 84 85 82 73 66 66 53 52 58 64 68 70 74 63 62 59 62 56 53 51 44
82 84 84 85 85 85 85 86 82 72 85 67 62 70 79 87 84 84 86 89 88 95 92 95 93 90 92 91 85 75 77 65 66 60 63 64 65 62 57 54 55 50 49 48 49
Wind_Direction
263 264 268 272 273 274 275 271 272 274 278 279 281 285 286 289 292 293 294 292 293 295 297 295 297 299 304 308 312 318 321 317 312 313 316 314 312 311 308 310 310 312 320 308 301
266 268 269 269 270 273 276 276 276 271 272 273 275 275 276 278 280 282 285 286 287 287 288 288 289 292 295 299 303 308 310 314 315 315 313 311 308 307 308 307 310 304 313 314 310
261 264 266 269 271 271 271 274 276 276 274 272 273 272 272 273 274 276 278 279 281 283 285 288 290 292 294 295 296 301 305 308 309 310 309 308 307 312 309 302 322 305 308 305 308
261 262 263 266 268 271 271 271 271 273 275 276 274 273 273 273 274 274 274 275 277 280 282 284 287 289 290 294 297 300 304 307 306 308 307 307 309 315 311 311 318 310 309 307 310
258 259 261 263 265 266 269 271 272 271 272 274 276 276 274 275 278 278 277 277 278 278 280 282 284 285 287 290 292 293 295 297 299 302 301 302 302 307 302 310 311 314 311 314 312
261 262 263 264 265 266 267 269 271 272 273 273 273 273 274 277 277 279 279 279 279 279 279 280 281 282 284 287 287 289 290 291 292 292 292 294 294 300 297 303 303 307 308 310 309
261 262 263 264 265 267 269 269 269 271 273 274 275 274 273 275 275 277 279 278 278 279 281 282 283 283 283 284 287 286 285 287 291 286 287 288 288 293 290 293 297 301 302 302 303
259 260 261 264 266 268 269 271 272 273 275 277 277 276 276 276 275 275 276 277 278 279 280 281 281 280 283 285 284 285 286 287 282 282 284 282 285 286 285 284 288 294 296 296 297
257 259 262 264 265 265 268 271 273 274 276 277 279 279 278 277 277 274 275 278 279 280 279 279 279 279 282 285 284 289 287 283 284 286 283 279 278 280 282 284 283 284 289 292 291
258 259 261 263 265 266 266 267 270 273 273 275 275 277 281 280 275 275 275 276 278 280 282 283 280 279 284 286 288 282 282 285 288 291 285 281 280 270 276 279 281 284 286 286 290
258 260 261 263 265 267 269 270 271 272 272 271 273 273 276 279 277 278 279 279 279 279 282 277 276 284 290 282 281 284 284 284 291 285 281 283 282 282 275 274 281 283 285 288 287
260 261 263 265 266 268 269 271 272 273 272 272 274 276 275 276 279 280 279 280 280 280 276 278 278 288 281 279 281 284 287 286 287 286 278 280 281 282 279 279 278 285 287 285 284
261 261 260 262 264 265 265 265 267 270 275 274 270 273 277 278 280 281 280 281 279 274 277 277 279 278 276 278 278 282 283 289 286 286 282 283 279 278 280 281 284 285 281 279 282
258 259 258 261 261 263 264 266 268 270 275 277 275 271 272 274 278 284 282 280 278 279 275 273 276 276 277 276 278 277 279 279 282 281 283 279 283 285 285 284 281 283 279 282 281
260 260 261 262 265 265 266 267 268 270 275 279 281 281 279 276 277 276 279 277 280 279 274 279 275 274 271 276 272 277 276 275 276 278 279 277 284 293 290 288 288 287 283 290 282
268 265 266 269 269 266 267 269 270 271 270 279 283 284 285 283 283 282 279 279 277 276 276 275 273 272 275 274 271 271 274 275 275 276 273 278 282 287 287 289 291 294 292 297 299
271 272 270 270 270 268 268 272 273 267 276 276 280 283 283 284 283 284 284 279 276 279 277 275 272 271 270 272 273 275 273 273 270 270 276 282 282 284 287 293 294 292 294 298 303
270 272 268 270 267 267 266 272 266 271 274 276 276 279 278 280 281 283 281 281 283 283 277 274 273 273 271 270 269 268 267 267 270 274 276 275 276 285 289 289 292 291 295 298 297
262 259 261 266 268 266 269 265 267 273 275 275 275 273 274 275 278 280 281 281 282 283 280 279 272 271 270 271 269 264 263 268 268 268 271 276 278 279 284 287 288 292 297 300 282
263 262 264 264 267 269 267 267 268 268 267 267 272 271 270 275 280 282 281 280 280 282 283 279 278 272 269 267 267 270 268 269 268 269 271 270 276 281 284 284 293 297 290 293 298
265 266 260 260 267 263 263 266 266 266 267 265 267 268 270 272 276 281 283 280 283 282 280 277 273 275 272 270 272 270 268 269 270 268 270 272 273 278 280 287 293 292 293 293 296
266 266 266 268 267 266 264 264 265 266 267 269 260 263 266 266 266 271 272 275 279 284 283 276 273 276 275 269 269 269 268 263 264 271 267 268 265 266 277 285 286 288 289 293 293
267 268 267 265 266 267 268 269 269 266 266 265 266 271 272 265 271 265 268 274 272 275 277 280 280 282 282 274 270 270 272 269 265 262 262 268 268 273 272 275 279 280 287 286 283
269 269 269 268 268 269 270 269 269 267 267 267 266 267 265 266 273 273 266 267 270 269 278 277 274 279 280 276 265 267 266 262 261 262 270 266 271 269 273 272 271 280 280 281 285
267 269 270 270 270 270 269 269 270 270 269 268 267 265 268 269 271 273 271 265 267 271 278 273 271 275 280 277 269 268 258 260 269 272 269 266 268 271 273 274 276 269 271 277 274
268 267 267 267 268 269 268 268 274 272 269 269 269 268 268 266 266 269 271 273 275 269 270 270 271 273 276 276 278 276 272 266 263 266 270 273 270 274 277 270 266 268 270 271 265
269 268 268 268 269 268 268 269 267 260 267 263 265 267 269 269 268 266 265 268 271 272 273 273 275 274 274 276 278 264 275 275 281 277 279 276 276 272 272 276 275 261 258 264 269